Torna al catalogo

STARLINK-1471

AttivoComunicazioniVLEO
NORAD 45735·PAYLOAD·🇺🇸 United States

Lanciato Jun 13, 2020 da Cape Canaveral Space Force Station

Loading…

Prossimi Passaggi (prossime 24 ore)

TLE

AggiornatoSource: CelesTrak SupGP

Epoca: Sep 14, 2026, 21:15 UTC

1 45735C 20038F   26257.88590278  .00019102  00000+0  21923-3 0  2575
2 45735  53.0407 307.9096 0002564  29.8438 105.7708 15.61412170    17

Traccia STARLINK-1471 in tempo reale con AllMySat

Download on the App Store